695  
ASUS44 KLCH 190211  
RWRLCH  
NEWRWRLCH  
REGIONAL WEATHER ROUNDUP  
NATIONAL WEATHER SERVICE LAKE CHARLES LA  
ISSUED BY NATIONAL WEATHER SERVICE BROWNSVILLE TX  
900 PM CDT FRI SEP 18 2020  
 
NOTE: "FAIR" INDICATES FEW OR NO CLOUDS BELOW 12,000 FEET WITH NO  
SIGNIFICANT WEATHER AND/OR S TO VISIBILITY
.  
 
ACROSS SOUTHEAST TEXAS  
 
CITY SKY/WX TMP DP RH WIND PRES REMARKS
 
BEAUMONT MOCLDY 77 56 48 NE9 29.96R  
ORANGE MOCLDY 76 55 46 N3 29.99R  
JASPER MOCLDY 76 64 67 N5 30.03R  

 
 
ACROSS CENTRAL LOUISIANA  
 
CITY SKY/WX TMP DP RH WIND PRES REMARKS
 
FORT POLK PTCLDY 74 63 66 N6 30.02R  
FULLERTON N/A 74 63 68 VRB3 29.98R  
ALEXANDRIA MOCLDY 74 63 68 N5 29.99R  
DERIDDER N/A 73 59 63 N5 30.01S  
OPELOUSAS N/A 70 61 74 NE3 29.99S  

 
 
ACROSS SOUTHWEST AND SOUTH CENTRAL LOUISIANA  
 
CITY SKY/WX TMP DP RH WIND PRES REMARKS
 
LAKE CHARLES MOCLDY 71 60 68 NE8 29.97R  
CHENNAULT AP CLEAR 73 61 64 NE7 29.97R  
SULPHUR NOT AVBL  
LAFAYETTE CLOUDY 72 63 73 NE9 29.97S  
NEW IBERIA CLOUDY 74 65 73 NE12 29.97R  
ABBEVILLE N/A 73 60 64 N7 29.97R  
PATTERSON LGT RAIN 72 71 97 NE9 29.96  
SALT POINT N/A 72 71 97 VRB5 29.94R  

 
 
SELECTED SITES ACROSS THE REGION  
 
CITY SKY/WX TMP DP RH WIND PRES REMARKS
 
HOUSTON BUSH MOCLDY 80 55 42 NE13 29.99R  
HOUSTON HOBBY MOCLDY 83 52 34 NE21 29.96R  
GALVESTON MOCLDY 81 61 50 NE17 29.95R  
COLLEGE STAT CLEAR 79 64 60 N12 30.02R  
CONROE PTCLDY 74 60 61 N3 30.01R  
HUNTSVILLE CLEAR 77 60 55 CALM 30.02R  
LUFKIN PTCLDY 76 63 64 N5 30.03R  
SHREVEPORT PTCLDY 76 64 66 NE13 30.06R  
NATCHEZ MS CLOUDY 73 63 70 NE8 30.03R  
BATON ROUGE CLOUDY 72 64 76 NE6 29.98S  
NEW ORLEANS LGT RAIN 76 70 82 NE10G18 29.96S  

 
 
MARINE REPORTS  
 
STATION/POSITION TIME TEMP WIND PRES VSBY WAVE
 
AIR SEA DIR/SP/G HT/PER  
(UTC) (F) (DEG/KT/KT) (MB) (MI) (FT/S)  
BUOY 30 S HIGH I 0200 82 85 50/ 25/ 31 1012.9  
PORT ARTHUR 0124 76 84 30/ 11/ 13 N/A  
SABINE PASS N 0124 77 85 N/A  
CALCASIEU PASS 0124 78 83 50/ 11/ 16 N/A  
AMERADA PASS 0130 74 82 30/ 4/ 9 N/A  

 
 
 
CLICK HERE TO GO TO PREVIOUS BULLETINS.

The Nexlab LA Page
The Nexlab TX Page Main Text Page